This is the latest recevied weather packets stored in our database for station/object W2SBL-1. If no packets are shown the sender has not sent any weather packets the latest 10 day(s).
| Time | Temp. | Humidity | Pressure | Rain* | Wind** | Luminosity | Snow |
|---|---|---|---|---|---|---|---|
| 1788273796 | 25.56° C | 56% | 1015.8 hPa | - | - | - | - |
| 1788272896 | 25.56° C | 56% | 1015.7 hPa | - | - | - | - |
| 1788271996 | 25.56° C | 56% | 1015.7 hPa | - | - | - | - |
| 1788271096 | 25° C | 56% | 1015.6 hPa | - | - | - | - |
| 1788270196 | 25° C | 56% | 1015.4 hPa | - | - | - | - |
| 1788269296 | 25° C | 56% | 1015.5 hPa | - | - | - | - |
| 1788268396 | 24.44° C | 56% | 1015.4 hPa | - | - | - | - |
| 1788267496 | 24.44° C | 57% | 1015.6 hPa | - | - | - | - |
| 1788266596 | 24.44° C | 57% | 1015.6 hPa | - | - | - | - |
| 1788265696 | 24.44° C | 56% | 1015.8 hPa | - | - | - | - |
| 1788264799 | 23.33° C | 57% | 1019.4 hPa | - | - | - | - |
| 1788263895 | 8.89° C | 56% | 991.4 hPa | - | - | - | - |
| 1788262995 | 23.89° C | 57% | 1016.1 hPa | - | - | - | - |
| 1788262095 | 23.89° C | 56% | 1015.8 hPa | - | - | - | - |
| 1788261195 | 23.89° C | 57% | 1015.9 hPa | - | - | - | - |
| 1788260295 | 23.89° C | 57% | 1015.8 hPa | - | - | - | - |
| 1788259395 | 23.33° C | 57% | 1015.5 hPa | - | - | - | - |
| 1788258495 | 23.33° C | 57% | 1015.6 hPa | - | - | - | - |
| 1788257595 | 23.33° C | 57% | 1015.7 hPa | - | - | - | - |
| 1788256695 | 23.33° C | 57% | 1015.4 hPa | - | - | - | - |
| 1788255795 | 23.33° C | 57% | 1015.4 hPa | - | - | - | - |
| 1788254895 | 23.33° C | 57% | 1015.6 hPa | - | - | - | - |
| 1788253995 | 23.33° C | 57% | 1015.7 hPa | - | - | - | - |
| 1788253094 | 23.33° C | 57% | 1015.7 hPa | - | - | - | - |
| 1788252194 | 23.33° C | 57% | 1015.8 hPa | - | - | - | - |
* Rain since midnight (hover to see other rain measurements)
** Current wind speed in m/s (hover to see current wind gust speed)